User: anonymous   Login
Location: Unspecified
(0.0000°N, 0.0000°E)
Time: 10:19:22
(UTC+00:00)
Language:

CSTB 1 - Orbit

View from above orbital plane
View from above orbital plane
View from above satellite
View from above satellite

Ground track
Ground track

The orbit data is extracted from the following two-line orbital elements,

1 31122U 07012F   21016.80679932  .00000244  00000-0  57497-4 0  9999
2 31122  98.1921 329.8541 0078083 349.3310  10.6230 14.61150255731937
Epoch (UTC): 16 January 2021 19:21:47
Eccentricity: 0.0078083
inclination: 98.1921°
perigee height: 634 km
apogee height: 744 km
right ascension of ascending node: 329.8541°
argument of perigee: 349.3310°
revolutions per day: 14.61150255
mean anomaly at epoch: 10.6230°
orbit number at epoch: 73193

The dashed part of the orbit path shows where the satellite is in the earth's shadow,  

DLR